Weather History for KDVO - March, 2013

Change the Weather History Date:

Tuesday, March 19, 2013

  Actual Average (KAPC) Record (KAPC)
Temperature  
Mean Temperature 52 °F 52 °F  
Max Temperature 62 °F 65 °F 77 °F (2001)
Min Temperature 41 °F 40 °F 32 °F (2002)
Degree Days  
Heating Degree Days 14    
Month to date heating degree days  
Since 1 July heating degree days  
Cooling Degree Days 0    
Month to date cooling degree days  
Year to date cooling degree days  
Growing Degree Days 2 (Base 50)    
Moisture  
Dew Point 46 °F    
Average Humidity 82    
Maximum Humidity 100    
Minimum Humidity 44    
Precipitation  
Precipitation 0.00 in - 1.15 in (1949)
Month to date precipitation  
Year to date precipitation  
Sea Level Pressure  
Sea Level Pressure 30.11 in    
Wind  
Wind Speed 2 mph (NW)    
Max Wind Speed 14 mph    
Max Gust Speed 17 mph    
Visibility 10 miles    
Events Rain    
T = Trace of Precipitation, MM = Missing Value Source: NWS Daily Summary

Daily Weather History Graph

Daily Weather History Graph

Search for Another Location

Airport or City:

Trip Planner

Search our weather history database for the weather conditions in past years. The results will help you decide how hot, cold, wet, or windy it might be!

Date:

Astronomy

Mar. 19, 2013 Rise Set
Actual Time 7:14 AM PDT 7:21 PM PDT
Civil Twilight 6:48 AM PDT 7:47 PM PDT
Nautical Twilight 6:17 AM PDT 8:18 PM PDT
Astronomical Twilight 5:46 AM PDT 8:49 PM PDT
Moon 12:14 PM PDT (3/19) 2:07 AM PDT (3/19)
Length of Visible Light 12h 59m
Length of Day
12h 06m
Waxing Crescent, 51% of the Moon is Illuminated
Mar 19
Waxing Crescent
Mar 27
Full
Apr 2
Last Quarter
Apr 10
New
Apr 18
First Quarter

Hourly Weather History & Observations

Time (PDT) Temp. Windchill Dew Point Humidity Pressure Visibility Wind Dir Wind Speed Gust Speed Precip Events Conditions
12:15 AM 48.2 °F - 46.4 °F 93% 30.09 in 10.0 mi ESE 3.5 mph - N/A   Clear
12:35 AM 48.2 °F - 46.4 °F 93% 30.10 in 10.0 mi Calm Calm - N/A   Mostly Cloudy
12:55 AM 48.2 °F - 46.4 °F 93% 30.10 in 10.0 mi Calm Calm - N/A   Mostly Cloudy
1:15 AM 48.2 °F - 46.4 °F 93% 30.09 in 10.0 mi Calm Calm - N/A   Unknown
1:35 AM 48.2 °F - 46.4 °F 93% 30.09 in 10.0 mi Calm Calm - N/A   Unknown
1:55 AM 46.4 °F - 46.4 °F 100% 30.10 in 10.0 mi Calm Calm - N/A   Unknown
2:15 AM 46.4 °F - 46.4 °F 100% 30.10 in 10.0 mi Calm Calm - N/A   Unknown
2:35 AM 46.4 °F - 46.4 °F 100% 30.10 in 10.0 mi Calm Calm - N/A   Unknown
3:15 AM 46.4 °F - 46.4 °F 100% 30.09 in 10.0 mi Calm Calm - N/A   Unknown
3:35 AM 46.4 °F - 46.4 °F 100% 30.08 in 10.0 mi Calm Calm - N/A   Unknown
3:55 AM 46.4 °F - 46.4 °F 100% 30.08 in 10.0 mi Calm Calm - N/A   Unknown
4:15 AM 46.4 °F 45.2 °F 46.4 °F 100% 30.07 in 10.0 mi North 3.5 mph - N/A   Unknown
4:35 AM 48.2 °F - 46.4 °F 93% 30.07 in 10.0 mi Calm Calm - N/A   Unknown
4:55 AM 46.4 °F - 46.4 °F 100% 30.08 in 10.0 mi Calm Calm - N/A   Unknown
5:15 AM 44.6 °F - 44.6 °F 100% 30.08 in 10.0 mi Calm Calm - N/A   Unknown
5:35 AM 46.4 °F - 46.4 °F 100% 30.08 in 10.0 mi Calm Calm - N/A   Unknown
5:55 AM 44.6 °F 43.1 °F 44.6 °F 100% 30.09 in 10.0 mi North 3.5 mph - N/A   Unknown
6:15 AM 41.0 °F 39.0 °F 41.0 °F 100% 30.09 in 10.0 mi North 3.5 mph - N/A   Unknown
6:35 AM 44.6 °F - 44.6 °F 100% 30.10 in 10.0 mi Calm Calm - N/A   Unknown
6:55 AM 44.6 °F 43.1 °F 44.6 °F 100% 30.10 in 10.0 mi SSW 3.5 mph - N/A   Unknown
7:15 AM 44.6 °F 43.1 °F 44.6 °F 100% 30.10 in 10.0 mi SSW 3.5 mph - N/A   Unknown
7:35 AM 44.6 °F 42.2 °F 44.6 °F 100% 30.11 in 10.0 mi SW 4.6 mph - N/A   Unknown
7:55 AM 44.6 °F - 44.6 °F 100% 30.11 in 10.0 mi Calm Calm - N/A   Unknown
8:15 AM 46.4 °F - 46.4 °F 100% 30.11 in 10.0 mi Calm Calm - N/A   Mostly Cloudy
8:35 AM 48.2 °F - 46.4 °F 93% 30.12 in 10.0 mi Calm Calm - N/A   Mostly Cloudy
8:55 AM 48.2 °F - 48.2 °F 100% 30.12 in 10.0 mi Calm Calm - N/A   Partly Cloudy
9:15 AM 50.0 °F - 48.2 °F 94% 30.13 in 10.0 mi Calm Calm - N/A   Clear
9:35 AM 51.8 °F - 46.4 °F 82% 30.13 in 10.0 mi Calm Calm - N/A   Partly Cloudy
9:55 AM 53.6 °F - 46.4 °F 77% 30.13 in 10.0 mi North 3.5 mph - N/A   Mostly Cloudy
10:15 AM 53.6 °F - 48.2 °F 82% 30.13 in 10.0 mi NNE 3.5 mph - N/A   Mostly Cloudy
10:35 AM 55.4 °F - 48.2 °F 77% 30.12 in 10.0 mi NNE 4.6 mph - N/A   Mostly Cloudy
10:55 AM 55.4 °F - 48.2 °F 77% 30.12 in 10.0 mi NE 3.5 mph - N/A   Mostly Cloudy
11:15 AM 57.2 °F - 48.2 °F 72% 30.12 in 10.0 mi ESE 3.5 mph - N/A   Mostly Cloudy
11:35 AM 57.2 °F - 48.2 °F 72% 30.12 in 10.0 mi Calm Calm - N/A   Mostly Cloudy
11:55 AM 57.2 °F - 46.4 °F 67% 30.13 in 10.0 mi Calm Calm - N/A   Mostly Cloudy
12:15 PM 59.0 °F - 48.2 °F 67% 30.12 in 10.0 mi Calm Calm - N/A   Mostly Cloudy
12:35 PM 59.0 °F - 48.2 °F 67% 30.12 in 10.0 mi NNW 3.5 mph - N/A   Mostly Cloudy
12:55 PM 60.8 °F - 48.2 °F 63% 30.13 in 10.0 mi North 6.9 mph - N/A   Mostly Cloudy
1:15 PM 62.6 °F - 50.0 °F 63% 30.11 in 10.0 mi NNW 10.4 mph - N/A   Mostly Cloudy
1:35 PM 62.6 °F - 50.0 °F 63% 30.11 in 10.0 mi NNW 13.8 mph - N/A   Mostly Cloudy
1:55 PM 62.6 °F - 50.0 °F 63% 30.11 in 10.0 mi NNW 13.8 mph - N/A   Mostly Cloudy
2:15 PM 62.6 °F - 50.0 °F 63% 30.10 in 10.0 mi NNW 10.4 mph - N/A   Scattered Clouds
2:35 PM 60.8 °F - 50.0 °F 68% 30.10 in 10.0 mi NNW 13.8 mph - N/A   Mostly Cloudy
2:55 PM 59.0 °F - 48.2 °F 67% 30.10 in 10.0 mi NNW 13.8 mph - N/A   Overcast
3:15 PM 60.8 °F - 48.2 °F 63% 30.10 in 10.0 mi NNW 9.2 mph - N/A   Overcast
3:35 PM 59.0 °F - 46.4 °F 63% 30.10 in 10.0 mi NNE 10.4 mph - N/A   Overcast
3:55 PM 59.0 °F - 44.6 °F 59% 30.10 in 10.0 mi North 9.2 mph - N/A   Overcast
4:15 PM 59.0 °F - 44.6 °F 59% 30.10 in 10.0 mi NNW 6.9 mph - N/A   Overcast
4:35 PM 59.0 °F - 44.6 °F 59% 30.10 in 10.0 mi Calm Calm - N/A   Overcast
4:55 PM 59.0 °F - 46.4 °F 63% 30.12 in 10.0 mi SW 3.5 mph - N/A   Overcast
5:15 PM 60.8 °F - 42.8 °F 52% 30.12 in 10.0 mi WSW 6.9 mph - N/A   Overcast
5:35 PM 59.0 °F - 39.2 °F 48% 30.12 in 10.0 mi West 5.8 mph - N/A   Overcast
5:55 PM 59.0 °F - 41.0 °F 51% 30.12 in 10.0 mi WSW 4.6 mph - N/A   Overcast
6:15 PM 57.2 °F - 37.4 °F 48% 30.13 in 10.0 mi WSW 10.4 mph 17.3 mph N/A   Overcast
6:35 PM 55.4 °F - 41.0 °F 58% 30.14 in 8.0 mi WSW 8.1 mph - N/A Rain Light Rain
6:55 PM 55.4 °F - 33.8 °F 44% 30.15 in 10.0 mi West 4.6 mph - N/A Rain Light Rain
7:15 PM 53.6 °F - 37.4 °F 54% 30.14 in 10.0 mi Calm Calm - N/A Rain Light Rain
7:35 PM 51.8 °F - 39.2 °F 62% 30.14 in 10.0 mi WNW 3.5 mph - N/A Rain Light Rain
7:55 PM 50.0 °F - 41.0 °F 71% 30.13 in 9.0 mi Calm Calm - N/A Rain Light Rain
8:15 PM 48.2 °F - 46.4 °F 93% 30.13 in 7.0 mi Calm Calm - N/A Rain Light Rain
8:35 PM 48.2 °F - 46.4 °F 93% 30.13 in 10.0 mi Calm Calm - N/A Rain Light Rain
8:55 PM 48.2 °F - 44.6 °F 87% 30.13 in 10.0 mi Calm Calm - N/A   Mostly Cloudy
9:15 PM 48.2 °F - 48.2 °F 100% 30.12 in 10.0 mi Calm Calm - N/A   Mostly Cloudy
9:35 PM 46.4 °F - 46.4 °F 100% 30.11 in 10.0 mi Calm Calm - N/A   Overcast
9:55 PM 48.2 °F - 48.2 °F 100% 30.12 in 10.0 mi Calm Calm - N/A   Overcast
10:35 PM 48.2 °F - 46.4 °F 93% 30.12 in 10.0 mi SSW 3.5 mph - N/A   Mostly Cloudy
10:55 PM 48.2 °F - 46.4 °F 93% 30.12 in 10.0 mi Calm Calm - N/A   Partly Cloudy
11:15 PM 48.2 °F - 46.4 °F 93% 30.12 in 10.0 mi Calm Calm - N/A   Clear
11:35 PM 48.2 °F - 44.6 °F 87% 30.11 in 10.0 mi Calm Calm - N/A   Scattered Clouds
11:55 PM 48.2 °F - 46.4 °F 93% 30.11 in 10.0 mi Calm Calm - N/A   Mostly Cloudy